GW0326 Weather Reports


time (UTC)temp
C
wind
direction
speed
KPH
gust
KPH
rain 1hr
cm
rain 24hr
cm
rain mn
cm
humidity
%
barometer
mb
20260505002045 8 0 0.0 4.8 0.00 0.05 0.05 65 1013.3
20260505001550 8 0 0.0 4.8 0.00 0.05 0.05 65 1013.3
20260505001043 8 15 0.0 3.2 0.00 0.05 0.05 66 1013.3
20260505000543 8 0 0.0 0.0 0.00 0.05 0.05 67 1013.3
20260505000051 8 0 0.0 8.0 0.00 0.05 0.05 69 1013.3
20260504235545 8 0 0.0 8.0 0.00 0.05 0.05 68 1013.2
20260504235043 8 0 1.6 8.0 0.00 0.05 0.05 68 1013.3
20260504234551 8 0 0.0 0.0 0.00 0.05 0.05 69 1013.1
20260504234047 8 0 0.0 0.0 0.00 0.05 0.05 70 1013.2
20260504233548 8 0 0.0 0.0 0.00 0.05 0.05 71 1013.2
20260504233057 8 0 0.0 0.0 0.00 0.05 0.05 71 1013.4
20260504232543 8 0 0.0 0.0 0.03 0.05 0.05 73 1013.4
20260504232044 8 0 0.0 0.0 0.03 0.05 0.05 73 1013.4
20260504231549 8 0 0.0 0.0 0.03 0.05 0.05 75 1013.3
20260504231044 8 0 0.0 0.0 0.05 0.05 0.05 75 1013.2
20260504230544 8 0 0.0 1.6 0.05 0.05 0.05 73 1013.1
20260504230049 8 0 0.0 1.6 0.05 0.05 0.05 74 1012.8
20260504225543 8 0 0.0 1.6 0.05 0.05 0.05 76 1012.8
20260504225044 8 0 0.0 0.0 0.05 0.05 0.05 79 1013.1
20260504224547 8 0 0.0 0.0 0.05 0.05 0.05 79 1013.2
20260504224048 8 0 0.0 0.0 0.05 0.05 0.05 78 1013.4
20260504223547 8 0 0.0 0.0 0.05 0.05 0.05 81 1013.6
20260504223104 8 0 0.0 0.0 0.05 0.05 0.05 80 1013.7
20260504222544 8 0 0.0 1.6 0.03 0.03 0.03 76 1013.8
20260504222044 8 0 0.0 1.6 0.03 0.03 0.03 73 1014.0
20260504221548 9 0 0.0 4.8 0.03 0.03 0.03 70 1014.0
20260504221045 10 0 0.0 4.8 0.00 0.00 0.00 65 1013.7
20260504220545 10 0 0.0 12.9 0.00 0.00 0.00 59 1013.8
20260504220048 10 0 0.0 12.9 0.00 0.00 0.00 53 1013.4
20260504215547 10 56 0.0 19.3 0.00 0.00 0.00 52 1012.9
20260504215043 10 0 0.0 22.5 0.00 0.00 0.00 51 1012.8
20260504214545 10 39 4.8 24.1 0.00 0.00 0.00 50 1012.5
20260504214045 11 35 12.9 24.1 0.00 0.00 0.00 48 1012.2
20260504213543 11 270 8.0 35.4 0.00 0.00 0.00 47 1012.3
20260504213055 11 26 8.0 35.4 0.00 0.00 0.00 46 1012.3
20260504212547 11 42 6.4 24.1 0.00 0.00 0.00 45 1012.4
20260504212045 12 56 12.9 30.6 0.00 0.00 0.00 43 1012.2
20260504211649 12 26 11.3 30.6 0.00 0.00 0.00 41 1012.3
20260504211044 13 28 16.1 27.4 0.00 0.00 0.00 39 1012.2
20260504210545 13 15 4.8 29.0 0.00 0.00 0.00 36 1012.2
20260504210052 14 18 14.5 29.0 0.00 0.00 0.00 34 1012.2
20260504205543 15 49 1.6 9.7 0.00 0.00 0.00 27 1012.3
20260504205044 15 0 1.6 9.7 0.00 0.00 0.00 29 1012.1
20260504204556 15 49 3.2 9.7 0.00 0.00 0.00 31 1012.1
20260504204045 15 0 3.2 9.7 0.00 0.00 0.00 31 1012.1
20260504203544 15 0 1.6 9.7 0.00 0.00 0.00 32 1012.3
20260504203107 15 0 0.0 8.0 0.00 0.00 0.00 33 1012.3
20260504202545 14 0 0.0 8.0 0.00 0.00 0.00 33 1012.5
20260504202045 14 327 0.0 9.7 0.00 0.00 0.00 33 1012.4
20260504201552 13 0 0.0 9.7 0.00 0.00 0.00 36 1012.6
20260504201044 13 278 1.6 12.9 0.00 0.00 0.00 36 1012.6
20260504200543 13 0 3.2 12.9 0.00 0.00 0.00 37 1012.8
20260504200053 13 0 1.6 16.1 0.00 0.00 0.00 37 1013.0
20260504195544 13 215 3.2 17.7 0.00 0.00 0.00 36 1013.0
20260504195044 13 202 6.4 25.7 0.00 0.00 0.00 36 1013.1
20260504194555 13 235 11.3 29.0 0.00 0.00 0.00 36 1013.0
20260504194044 13 182 6.4 29.0 0.00 0.00 0.00 33 1012.8
20260504193545 14 278 8.0 29.0 0.00 0.00 0.00 33 1012.9
20260504193051 14 0 1.6 25.7 0.00 0.00 0.00 33 1013.0
20260504192543 15 198 1.6 25.7 0.00 0.00 0.00 33 1013.0
20260504192045 15 194 6.4 25.7 0.00 0.00 0.00 32 1013.0
20260504191607 15 238 4.8 22.5 0.00 0.00 0.00 29 1013.1
20260504191044 16 179 4.8 22.5 0.00 0.00 0.00 28 1012.9
20260504190544 16 267 4.8 17.7 0.00 0.00 0.00 30 1012.9
20260504190105 16 250 1.6 14.5 0.00 0.00 0.00 31 1012.9
20260504185544 16 303 1.6 11.3 0.00 0.00 0.00 32 1013.0
20260504185043 15 263 4.8 14.5 0.00 0.00 0.00 31 1013.0
20260504184552 15 279 3.2 14.5 0.00 0.00 0.00 32 1013.1
20260504184043 16 228 3.2 12.9 0.00 0.00 0.00 32 1013.1
20260504183546 16 275 1.6 11.3 0.00 0.00 0.00 33 1013.1
20260504183048 16 201 0.0 9.7 0.00 0.00 0.00 34 1013.1
20260504182545 15 0 3.2 9.7 0.00 0.00 0.00 32 1013.1
20260504182043 15 0 1.6 14.5 0.00 0.00 0.00 32 1013.2
20260504181553 15 0 1.6 14.5 0.00 0.00 0.00 32 1013.3
20260504181045 15 0 1.6 9.7 0.00 0.00 0.00 32 1013.4
20260504180544 16 318 0.0 12.9 0.00 0.00 0.00 32 1013.4
20260504180054 15 350 0.0 12.9 0.00 0.00 0.00 33 1013.4
20260504175544 15 0 1.6 11.3 0.00 0.00 0.00 34 1013.6
20260504175046 15 355 1.6 11.3 0.00 0.00 0.00 34 1013.6
20260504174549 15 240 3.2 19.3 0.00 0.00 0.00 34 1013.8
20260504174046 14 255 3.2 19.3 0.00 0.00 0.00 34 1013.8
20260504173544 14 0 0.0 12.9 0.00 0.00 0.00 35 1013.9
20260504173057 14 225 3.2 12.9 0.00 0.00 0.00 34 1014.1
20260504172544 13 254 0.0 9.7 0.00 0.00 0.00 37 1014.1
20260504172044 13 0 0.0 9.7 0.00 0.00 0.00 37 1014.1
20260504171554 13 360 0.0 16.1 0.00 0.00 0.00 36 1014.1
20260504171043 13 0 1.6 16.1 0.00 0.00 0.00 37 1014.1
20260504170545 13 0 0.0 1.6 0.00 0.00 0.00 38 1014.2
20260504151047 11 360 1.6 11.3 0.00 0.00 0.00 42 1014.3
20260504150548 10 216 1.6 11.3 0.00 0.00 0.00 42 1014.4
20260504141044 10 0 6.4 19.3 0.00 0.00 0.00 40 1014.4
20260504140548 10 0 4.8 19.3 0.00 0.00 0.00 39 1014.3
20260504130548 7 0 0.0 1.6 0.00 0.00 0.00 42 1014.3
20260504110544 7 290 0.0 6.4 0.00 0.00 0.00 33 1013.8
20260504100544 7 0 1.6 6.4 0.00 0.00 0.00 38 1014.0
20260504081553 7 285 1.6 4.8 0.00 0.00 0.00 41 1014.9
20260504081047 7 285 1.6 6.4 0.00 0.00 0.00 42 1014.9
20260504080545 7 285 1.6 6.4 0.00 0.00 0.00 42 1015.1
20260504050544 8 0 0.0 1.6 0.00 0.00 0.00 41 1016.2
20260504045543 8 0 0.0 4.8 0.00 0.00 0.00 41 1016.3
20260504045043 8 0 0.0 4.8 0.00 0.00 0.00 41 1016.3
20260504044547 8 0 0.0 6.4 0.00 0.00 0.00 40 1016.3
20260504044043 8 263 0.0 6.4 0.00 0.00 0.00 40 1016.4
20260504043547 8 259 0.0 4.8 0.00 0.00 0.00 41 1016.4
20260504043058 9 0 0.0 3.2 0.00 0.00 0.00 40 1016.4
20260504042545 8 0 0.0 3.2 0.00 0.00 0.00 41 1016.3
20260504042048 8 0 0.0 3.2 0.00 0.00 0.00 41 1016.4
20260504041552 8 0 0.0 1.6 0.00 0.00 0.00 41 1016.4
20260504041047 9 0 0.0 1.6 0.00 0.00 0.00 41 1016.4
20260504040544 9 0 0.0 1.6 0.00 0.00 0.00 41 1016.5
20260504040120 9 0 0.0 1.6 0.00 0.00 0.00 41 1016.5
20260504035547 10 0 0.0 3.2 0.00 0.00 0.00 41 1016.6
20260504035045 10 0 0.0 3.2 0.00 0.00 0.00 40 1016.6
20260504034550 10 0 0.0 1.6 0.00 0.00 0.00 40 1016.7
20260504034043 10 0 0.0 1.6 0.00 0.00 0.00 40 1016.7
20260504033545 10 0 0.0 1.6 0.00 0.00 0.00 40 1016.8
20260504033051 10 0 0.0 3.2 0.00 0.00 0.00 40 1016.8
20260504032547 10 0 0.0 4.8 0.00 0.00 0.00 40 1016.8
20260504032046 10 0 0.0 6.4 0.00 0.00 0.00 40 1016.9
20260504031606 10 0 0.0 6.4 0.00 0.00 0.00 40 1016.9
20260504031046 10 0 0.0 4.8 0.00 0.00 0.00 40 1016.8
20260504030545 10 0 0.0 4.8 0.00 0.00 0.00 40 1016.8
20260504030051 10 0 0.0 3.2 0.00 0.00 0.00 39 1016.7
20260504025545 10 0 0.0 6.4 0.00 0.00 0.00 39 1016.6
20260504025045 11 0 0.0 6.4 0.00 0.00 0.00 39 1016.6
20260504024553 11 0 0.0 6.4 0.00 0.00 0.00 38 1016.6
20260504024045 11 0 0.0 1.6 0.00 0.00 0.00 38 1016.6
20260504023545 11 0 0.0 4.8 0.00 0.00 0.00 37 1016.6
20260504023049 11 0 0.0 4.8 0.00 0.00 0.00 37 1016.6
20260504022544 11 0 0.0 6.4 0.00 0.00 0.00 36 1016.6
20260504022045 11 0 0.0 6.4 0.00 0.00 0.00 36 1016.5
20260504021557 11 261 0.0 4.8 0.00 0.00 0.00 36 1016.6
20260504021044 11 248 0.0 4.8 0.00 0.00 0.00 36 1016.6
20260504020544 12 250 0.0 4.8 0.00 0.00 0.00 35 1016.5
20260504020107 12 241 0.0 0.0 0.00 0.00 0.00 34 1016.6
20260504015547 12 0 0.0 0.0 0.00 0.00 0.00 34 1016.5
20260504015045 12 0 0.0 0.0 0.00 0.00 0.00 33 1016.5
20260504014552 12 0 0.0 0.0 0.00 0.00 0.00 33 1016.5
20260504014045 13 0 0.0 0.0 0.00 0.00 0.00 32 1016.5
20260504013547 13 0 0.0 0.0 0.00 0.00 0.00 32 1016.4
20260504013048 13 0 0.0 0.0 0.00 0.00 0.00 32 1016.4
20260504012549 13 0 0.0 4.8 0.00 0.00 0.00 32 1016.4
20260504012045 13 0 0.0 4.8 0.00 0.00 0.00 32 1016.3
20260504011552 13 0 0.0 4.8 0.00 0.00 0.00 31 1016.4
20260504011044 13 0 0.0 6.4 0.00 0.00 0.00 31 1016.4
20260504010545 13 0 0.0 9.7 0.00 0.00 0.00 31 1016.4
20260504010055 13 281 1.6 9.7 0.00 0.00 0.00 30 1016.3
20260504005546 13 309 1.6 9.7 0.00 0.00 0.00 31 1016.3
20260504005049 14 0 0.0 16.1 0.00 0.00 0.00 30 1016.4
20260504004553 14 0 1.6 16.1 0.00 0.00 0.00 30 1016.4
20260504004046 14 333 0.0 8.0 0.00 0.00 0.00 30 1016.4
20260504003546 14 326 0.0 12.9 0.00 0.00 0.00 29 1016.5
20260504003053 15 0 1.6 12.9 0.00 0.00 0.00 29 1016.5
20260504002547 15 279 1.6 11.3 0.00 0.00 0.00 29 1016.4